�N����,����,�~����,�C��,���x,�C��,����,���ϕ���,�ő�u�ԕ���,�ő厞����,���˗�,�I�_���x,�n�����x,�ő啗���N��,DTYPE
"16/12/31","00:10",0.0,-0.1,97.8,1020.1,307.5,1.8,2.6,321.6,0.00,-0.4,5.8,"00:07:20",1
"16/12/31","00:20",0.0,-0.3,99.3,1020.1,304.0,1.8,2.7,319.7,0.00,-0.4,5.6,"00:10:08",1
"16/12/31","00:30",0.0,0.1,98.3,1020.4,308.5,2.0,2.7,319.7,0.00,-0.1,5.5,"00:27:12",1
"16/12/31","00:40",0.0,-0.2,97.8,1020.6,307.4,1.3,2.1,313.4,0.00,-0.5,5.6,"00:31:36",1
"16/12/31","00:50",0.0,-0.8,99.0,1020.4,298.1,1.5,1.9,309.3,0.00,-0.9,5.5,"00:49:52",1
"16/12/31","01:00",0.0,-0.7,98.5,1020.1,317.9,1.8,2.4,316.8,0.00,-0.9,5.8,"00:51:20",1
"16/12/31","01:10",0.0,-0.6,98.4,1020.1,321.8,1.2,2.2,323.1,0.00,-0.8,5.5,"01:09:52",1
"16/12/31","01:20",0.0,-0.7,98.3,1019.9,316.8,1.8,2.5,322.6,0.00,-0.9,5.5,"01:16:16",1
"16/12/31","01:30",0.0,-0.8,98.6,1020.1,300.0,1.5,1.7,294.3,0.00,-1.0,5.6,"01:27:06",1
"16/12/31","01:40",0.0,-0.6,98.7,1020.1,294.8,1.3,1.9,296.5,0.00,-0.7,5.5,"01:32:00",1
"16/12/31","01:50",0.0,-0.4,98.9,1020.1,306.5,0.7,1.7,342.5,0.00,-0.5,5.4,"01:48:48",1
"16/12/31","02:00",0.0,-0.6,98.5,1019.9,303.3,1.0,1.9,310.2,0.00,-0.8,5.6,"01:59:44",1
"16/12/31","02:10",0.0,-0.8,98.7,1019.9,317.1,1.8,2.4,319.5,0.00,-0.9,5.5,"02:04:40",1
"16/12/31","02:20",0.0,-0.9,98.9,1020.4,309.8,1.7,2.5,322.2,0.00,-1.0,5.2,"02:19:12",1
"16/12/31","02:30",0.0,-1.0,98.8,1020.1,317.0,1.5,2.0,324.1,0.00,-1.1,5.2,"02:20:24",1
"16/12/31","02:40",0.0,-1.1,98.9,1019.9,309.1,2.1,2.4,319.8,0.00,-1.2,5.1,"02:39:44",1
"16/12/31","02:50",0.0,-1.2,98.7,1020.1,305.7,1.5,2.4,321.8,0.00,-1.3,5.3,"02:40:08",1
"16/12/31","03:00",0.0,-1.3,99.0,1019.9,312.2,2.0,2.6,323.0,0.00,-1.4,5.2,"02:54:44",1
"16/12/31","03:10",0.0,-1.4,98.8,1020.1,305.7,2.0,2.0,310.6,0.00,-1.5,5.0,"03:01:20",1
"16/12/31","03:20",0.0,-1.5,98.9,1019.9,305.9,2.1,2.4,315.8,0.00,-1.6,5.1,"03:12:56",1
"16/12/31","03:30",0.0,-1.5,99.1,1019.7,309.6,1.7,2.2,307.9,0.00,-1.6,5.0,"03:21:48",1
"16/12/31","03:40",0.0,-1.5,99.0,1019.7,313.1,2.5,2.7,319.3,0.00,-1.6,4.9,"03:36:06",1
"16/12/31","03:50",0.0,-1.4,99.1,1019.4,312.2,1.8,2.5,307.3,0.00,-1.5,5.1,"03:40:16",1
"16/12/31","04:00",0.0,-1.6,98.9,1019.9,301.6,1.1,1.8,305.9,0.00,-1.7,5.0,"03:59:54",1
"16/12/31","04:10",0.0,-1.6,99.2,1019.7,318.0,2.6,2.9,322.2,0.00,-1.7,5.1,"04:09:22",1
"16/12/31","04:20",0.0,-1.6,99.2,1019.7,315.7,2.3,2.8,318.9,0.00,-1.7,4.9,"04:15:36",1
"16/12/31","04:30",0.0,-1.7,99.2,1019.4,304.2,1.3,2.0,316.1,0.00,-1.8,4.8,"04:29:46",1
"16/12/31","04:40",0.0,-1.7,99.3,1019.9,306.1,2.2,2.8,306.8,0.00,-1.8,4.7,"04:34:36",1
"16/12/31","04:50",0.0,-1.6,99.5,1019.9,310.2,2.0,2.4,311.6,0.00,-1.6,4.8,"04:40:54",1
"16/12/31","05:00",0.0,-1.1,99.9,1019.9,291.9,2.1,2.8,310.3,0.00,-1.1,4.8,"04:56:48",1
"16/12/31","05:10",0.0,-0.7,99.5,1019.7,288.8,1.7,2.4,282.6,0.00,-0.7,4.8,"05:07:36",1
"16/12/31","05:20",0.0,-0.4,99.5,1019.9,294.4,2.3,3.7,318.7,0.00,-0.4,4.7,"05:12:08",1
"16/12/31","05:30",0.0,-0.3,99.3,1020.1,298.1,2.2,3.3,301.2,0.00,-0.4,4.7,"05:21:52",1
"16/12/31","05:40",0.0,-0.6,99.0,1019.7,290.2,0.7,1.6,307.6,0.00,-0.7,4.8,"05:30:16",1
"16/12/31","05:50",0.0,-1.2,98.9,1019.9,314.7,1.8,2.4,326.3,0.00,-1.3,4.7,"05:44:52",1
"16/12/31","06:00",0.0,-1.4,99.1,1020.1,315.4,1.8,2.6,325.4,0.00,-1.5,4.7,"05:50:22",1
"16/12/31","06:10",0.0,-1.4,99.4,1020.1,284.9,1.6,1.7,280.3,0.00,-1.4,4.6,"06:08:08",1
"16/12/31","06:20",0.0,-1.0,99.5,1020.1,300.1,1.8,2.6,318.7,0.00,-1.0,4.3,"06:12:24",1
"16/12/31","06:30",0.0,-0.8,99.5,1019.9,308.0,2.0,3.4,321.7,0.00,-0.8,4.6,"06:27:42",1
"16/12/31","06:40",0.0,-0.7,99.2,1020.8,297.4,1.7,2.5,303.4,0.00,-0.8,4.7,"06:30:44",1
"16/12/31","06:50",0.0,-0.8,99.3,1020.6,297.2,1.7,2.4,328.6,0.00,-0.9,4.7,"06:42:38",1
"16/12/31","07:00",0.0,-0.8,99.2,1020.8,313.9,1.6,2.5,315.3,0.00,-0.9,4.5,"06:50:34",1
"16/12/31","07:10",0.0,-1.2,98.8,1020.4,301.5,1.0,1.6,260.9,0.00,-1.3,4.6,"07:05:48",1
"16/12/31","07:20",0.0,-1.6,98.9,1020.6,302.8,1.6,2.6,316.4,0.00,-1.7,4.6,"07:13:42",1
"16/12/31","07:30",0.0,-1.7,98.9,1020.4,307.1,2.1,2.4,312.7,0.00,-1.8,4.6,"07:22:14",1
"16/12/31","07:40",0.0,-1.6,99.4,1020.6,305.5,1.5,1.8,299.7,0.00,-1.6,4.6,"07:32:28",1
"16/12/31","07:50",0.0,-1.0,99.6,1020.8,302.1,1.5,2.0,307.7,0.00,-1.0,4.4,"07:44:36",1
"16/12/31","08:00",0.0,-0.7,99.8,1020.8,305.9,2.3,3.2,313.2,0.01,-0.7,4.3,"07:58:16",1
"16/12/31","08:10",0.0,-0.2,99.6,1021.1,311.3,2.0,2.6,319.8,0.02,-0.2,4.6,"08:03:44",1
"16/12/31","08:20",0.0,0.2,99.4,1020.8,327.1,1.0,2.2,314.1,0.04,0.2,4.7,"08:19:36",1
"16/12/31","08:30",0.0,0.8,98.8,1021.1,321.7,0.7,1.6,309.8,0.05,0.7,4.4,"08:20:16",1
"16/12/31","08:40",0.0,1.1,97.6,1021.1,347.6,0.3,1.2,332.6,0.06,0.8,4.5,"08:38:52",1
"16/12/31","08:50",0.0,1.6,97.5,1021.3,305.9,0.5,1.8,325.9,0.07,1.3,4.5,"08:47:48",1
"16/12/31","09:00",0.2,2.0,96.5,1021.8,227.6,0.2,0.8,249.6,0.10,1.5,4.8,"08:52:32",1
"16/12/31","09:10",0.0,2.5,94.9,1022.0,237.4,0.2,0.8,265.9,0.12,1.8,4.6,"09:09:22",1
"16/12/31","09:20",0.0,3.2,93.9,1022.5,273.1,0.6,1.1,316.0,0.15,2.4,4.8,"09:16:32",1
"16/12/31","09:30",0.0,3.6,92.2,1022.7,266.5,0.7,1.2,263.0,0.17,2.5,4.8,"09:28:16",1
"16/12/31","09:40",0.0,4.1,90.4,1023.0,246.3,0.7,1.0,165.1,0.20,2.7,4.8,"09:35:04",1
"16/12/31","09:50",0.0,4.3,89.4,1023.0,215.4,0.6,1.4,237.8,0.22,2.8,5.2,"09:43:22",1
"16/12/31","10:00",0.0,4.7,87.3,1023.0,226.2,1.1,1.8,240.0,0.25,2.8,5.1,"09:58:08",1
"16/12/31","10:10",0.0,4.7,85.3,1023.0,191.2,0.7,1.4,128.1,0.27,2.5,5.6,"10:06:56",1
"16/12/31","10:20",0.0,5.4,84.2,1023.0,240.9,0.8,2.0,228.7,0.29,3.0,5.8,"10:13:20",1
"16/12/31","10:30",0.0,5.7,82.2,1023.0,244.3,1.1,2.0,130.4,0.31,2.9,6.1,"10:26:08",1
"16/12/31","10:40",0.0,6.1,80.6,1023.0,213.8,1.0,1.7,218.0,0.32,3.1,6.2,"10:39:58",1
"16/12/31","10:50",0.0,6.4,79.7,1022.7,222.6,1.0,1.8,234.9,0.34,3.2,6.3,"10:42:20",1
"16/12/31","11:00",0.0,6.7,76.4,1022.3,217.7,0.8,2.0,129.3,0.35,2.9,6.5,"10:55:26",1
"16/12/31","11:10",0.0,7.2,75.3,1022.7,233.7,0.8,1.9,201.8,0.37,3.2,6.6,"11:02:40",1
"16/12/31","11:20",0.0,7.4,73.7,1023.0,235.9,0.8,2.0,245.5,0.38,3.1,6.7,"11:19:44",1
"16/12/31","11:30",0.0,8.0,72.8,1022.5,225.0,0.8,1.6,245.4,0.38,3.5,7.1,"11:20:16",1
"16/12/31","11:40",0.0,8.1,72.5,1022.7,203.2,1.5,3.9,204.8,0.39,3.5,7.5,"11:34:08",1
"16/12/31","11:50",0.0,8.3,71.5,1022.7,202.1,1.6,2.9,201.4,0.40,3.5,7.3,"11:43:28",1
"16/12/31","12:00",0.0,8.7,70.2,1022.0,205.0,1.6,3.1,226.3,0.40,3.6,7.6,"11:54:48",1
"16/12/31","12:10",0.0,8.8,69.6,1022.0,183.4,1.2,2.1,75.3,0.40,3.6,8.0,"12:06:56",1
"16/12/31","12:20",0.0,8.9,68.4,1021.8,177.9,1.1,2.2,161.3,0.41,3.4,7.9,"12:11:36",1
"16/12/31","12:30",0.0,9.8,68.0,1021.5,220.4,1.0,2.1,120.1,0.41,4.2,8.2,"12:29:52",1
"16/12/31","12:40",0.0,9.5,67.7,1021.8,175.0,1.2,3.1,99.3,0.40,3.9,8.4,"12:30:40",1
"16/12/31","12:50",0.0,10.2,65.7,1021.1,209.1,1.2,2.5,121.9,0.40,4.1,8.6,"12:40:40",1
"16/12/31","13:00",0.0,10.1,65.3,1020.8,154.3,1.2,3.2,125.9,0.39,3.9,8.6,"12:52:32",1
"16/12/31","13:10",0.0,10.4,64.4,1020.8,181.2,1.5,2.8,214.3,0.38,4.0,8.8,"13:03:44",1
"16/12/31","13:20",0.0,10.6,62.8,1020.6,188.2,1.3,2.8,197.1,0.40,3.9,9.2,"13:10:24",1
"16/12/31","13:30",0.0,11.5,61.0,1020.1,218.5,1.3,2.8,230.4,0.41,4.3,9.0,"13:22:48",1
"16/12/31","13:40",0.0,11.4,60.6,1020.4,136.5,0.8,2.0,5.3,0.41,4.1,9.2,"13:39:44",1
"16/12/31","13:50",0.0,11.5,59.3,1019.9,60.4,1.0,2.8,119.5,0.36,3.9,9.6,"13:46:08",1
"16/12/31","14:00",0.0,11.5,58.2,1019.9,159.2,1.0,1.8,157.4,0.33,3.6,9.6,"13:56:08",1
"16/12/31","14:10",0.0,12.2,56.3,1019.9,247.7,1.0,1.8,251.5,0.36,3.8,9.7,"14:01:04",1
"16/12/31","14:20",0.0,12.8,53.3,1019.9,291.1,1.5,3.9,240.2,0.37,3.6,9.7,"14:18:56",1
"16/12/31","14:30",0.0,12.6,54.3,1019.7,247.5,2.6,6.2,227.5,0.36,3.7,9.9,"14:25:04",1
"16/12/31","14:40",0.0,12.8,51.2,1019.7,273.0,2.3,4.3,296.5,0.33,3.0,9.9,"14:37:44",1
"16/12/31","14:50",0.0,12.9,51.2,1019.7,291.0,2.5,5.7,231.8,0.31,3.1,10.0,"14:41:28",1
"16/12/31","15:00",0.0,12.4,50.3,1019.4,316.3,3.1,5.5,342.5,0.26,2.4,10.0,"14:56:08",1
"16/12/31","15:10",0.0,12.2,50.9,1019.2,284.3,2.7,4.8,314.7,0.25,2.4,10.2,"15:03:36",1
"16/12/31","15:20",0.0,12.3,53.3,1019.4,281.8,2.5,4.9,319.1,0.21,3.1,10.4,"15:10:56",1
"16/12/31","15:30",0.0,12.2,51.9,1019.4,321.5,2.5,4.5,316.7,0.17,2.7,10.2,"15:21:36",1
"16/12/31","15:40",0.0,11.9,52.9,1019.0,308.4,1.8,3.7,335.7,0.12,2.6,10.2,"15:35:36",1
"16/12/31","15:50",0.0,11.6,52.1,1019.4,329.7,2.5,4.8,340.2,0.10,2.2,10.3,"15:47:44",1
"16/12/31","16:00",0.0,11.4,52.8,1019.2,341.0,2.6,5.9,343.0,0.09,2.2,10.2,"15:55:52",1
"16/12/31","16:10",0.0,11.2,53.5,1019.4,339.6,2.3,4.4,342.8,0.05,2.2,10.2,"16:01:04",1
"16/12/31","16:20",0.0,11.2,54.1,1019.2,324.3,2.2,3.3,307.8,0.02,2.3,10.0,"16:14:08",1
"16/12/31","16:30",0.0,10.6,56.0,1019.4,314.3,2.1,3.6,330.6,0.00,2.2,10.0,"16:20:48",1
"16/12/31","16:40",0.0,10.2,57.5,1019.2,292.1,1.3,2.6,312.3,0.00,2.2,10.0,"16:37:20",1
"16/12/31","16:50",0.0,9.9,61.5,1019.2,281.4,1.6,2.4,292.9,0.00,2.9,9.8,"16:49:36",1
"16/12/31","17:00",0.0,9.0,65.4,1019.4,307.1,2.1,3.3,316.2,0.00,2.9,9.6,"16:57:20",1
"16/12/31","17:10",0.0,8.3,69.0,1019.7,302.8,2.0,2.8,288.8,0.00,3.0,9.7,"17:09:12",1
"16/12/31","17:20",0.0,7.7,71.9,1019.2,296.4,2.2,2.8,309.3,0.00,3.0,9.3,"17:11:04",1
"16/12/31","17:30",0.0,7.1,74.6,1019.2,300.1,2.5,4.2,315.2,0.00,2.9,9.4,"17:20:02",1
"16/12/31","17:40",0.0,6.9,77.4,1019.2,314.9,3.5,4.7,310.0,0.00,3.3,9.2,"17:37:12",1
"16/12/31","17:50",0.0,6.4,78.5,1019.4,291.5,2.6,4.0,283.6,0.00,3.0,9.1,"17:46:24",1
"16/12/31","18:00",0.0,6.3,80.3,1019.4,308.1,3.2,4.7,321.3,0.00,3.2,9.0,"17:56:16",1
"16/12/31","18:10",0.0,6.1,80.3,1019.4,293.7,2.7,4.2,325.8,0.00,3.0,8.9,"18:00:08",1
"16/12/31","18:20",0.0,5.8,82.3,1019.4,303.6,2.7,4.3,323.6,0.00,3.1,8.7,"18:17:20",1
"16/12/31","18:30",0.0,5.5,82.9,1019.4,291.3,2.1,3.6,293.9,0.00,2.9,8.7,"18:22:56",1
"16/12/31","18:40",0.0,5.3,84.0,1019.2,291.0,1.8,3.9,311.1,0.00,2.9,8.6,"18:39:04",1
"16/12/31","18:50",0.0,5.2,84.4,1019.2,289.4,2.1,2.9,316.9,0.00,2.8,8.3,"18:42:16",1
"16/12/31","19:00",0.0,5.1,84.7,1019.2,289.7,2.1,3.5,313.8,0.00,2.8,8.2,"18:50:32",1
"16/12/31","19:10",0.0,4.8,85.0,1019.2,294.7,2.1,2.8,310.4,0.00,2.5,8.3,"19:08:16",1
"16/12/31","19:20",0.0,4.6,86.1,1019.0,316.8,1.8,3.5,313.8,0.00,2.5,8.3,"19:12:00",1
"16/12/31","19:30",0.0,4.3,87.0,1019.0,306.2,1.1,2.6,326.9,0.00,2.4,7.9,"19:26:40",1
"16/12/31","19:40",0.0,4.1,88.1,1019.2,283.6,1.3,2.2,302.6,0.00,2.3,8.0,"19:33:20",1
"16/12/31","19:50",0.0,3.8,88.5,1019.2,287.3,1.2,1.6,291.8,0.00,2.1,7.9,"19:47:20",1
"16/12/31","20:00",0.0,3.5,89.1,1019.4,297.1,1.5,1.9,313.0,0.00,1.9,7.8,"19:58:22",1
"16/12/31","20:10",0.0,3.3,90.2,1019.2,310.3,2.0,2.7,320.6,0.00,1.9,7.7,"20:05:02",1
"16/12/31","20:20",0.0,3.2,91.1,1019.0,306.3,1.5,2.0,311.4,0.00,1.9,7.7,"20:10:24",1
"16/12/31","20:30",0.0,3.2,91.8,1018.7,322.2,2.1,2.5,321.6,0.00,2.0,7.6,"20:28:58",1
"16/12/31","20:40",0.0,2.9,92.3,1019.0,305.0,2.1,2.8,312.5,0.00,1.8,7.3,"20:35:36",1
"16/12/31","20:50",0.0,3.1,93.3,1018.7,286.5,2.1,3.1,319.0,0.00,2.2,7.2,"20:43:44",1
"16/12/31","21:00",0.0,3.3,92.9,1019.2,308.9,1.8,2.8,316.2,0.00,2.3,7.2,"20:57:04",1
"16/12/31","21:10",0.0,3.5,92.4,1019.2,285.9,1.6,2.4,310.6,0.00,2.4,7.3,"21:08:32",1
"16/12/31","21:20",0.0,3.7,92.1,1019.4,269.5,1.6,2.2,271.0,0.00,2.6,7.5,"21:14:48",1
"16/12/31","21:30",0.0,3.7,91.5,1019.4,282.2,1.3,1.9,262.8,0.00,2.5,7.2,"21:21:44",1
"16/12/31","21:40",0.0,3.7,91.5,1019.4,285.1,1.5,2.0,266.6,0.00,2.5,7.3,"21:35:04",1
"16/12/31","21:50",0.0,3.8,91.3,1019.7,289.1,1.2,1.9,319.4,0.00,2.6,7.1,"21:48:48",1
"16/12/31","22:00",0.0,4.0,91.3,1019.7,293.1,1.6,2.0,312.6,0.00,2.8,7.2,"21:53:12",1
"16/12/31","22:10",0.0,4.2,91.1,1019.7,274.9,1.5,3.2,315.9,0.00,2.9,7.1,"22:01:20",1
"16/12/31","22:20",0.0,4.2,90.9,1019.7,322.8,1.3,2.9,325.4,0.00,2.9,7.1,"22:17:28",1
"16/12/31","22:30",0.0,4.0,91.2,1019.7,302.8,1.1,2.4,322.3,0.00,2.7,7.2,"22:20:32",1
"16/12/31","22:40",0.0,4.0,91.8,1019.7,278.2,0.6,1.3,290.6,0.00,2.8,7.2,"22:39:04",1
"16/12/31","22:50",0.0,3.9,92.3,1019.4,297.2,1.5,1.9,309.8,0.00,2.8,7.2,"22:48:48",1
"16/12/31","23:00",0.0,3.9,92.8,1019.4,306.0,1.7,2.4,325.4,0.00,2.9,7.2,"22:52:56",1
"16/12/31","23:10",0.0,4.0,93.2,1019.9,277.3,1.6,2.2,274.3,0.00,3.0,7.2,"23:07:28",1
"16/12/31","23:20",0.0,4.3,92.5,1020.4,282.0,1.8,2.5,297.1,0.00,3.2,7.2,"23:11:04",1
"16/12/31","23:30",0.0,4.5,91.5,1019.9,268.3,1.3,1.7,257.5,0.00,3.3,7.0,"23:26:16",1
"16/12/31","23:40",0.0,4.6,91.3,1019.9,322.5,1.7,2.2,321.5,0.00,3.3,7.1,"23:32:08",1
"16/12/31","23:50",0.0,4.5,91.6,1019.9,307.4,1.6,2.6,338.0,0.00,3.3,6.8,"23:41:28",1
"16/12/31","24:00",0.0,4.4,92.0,1019.4,286.8,1.5,2.0,311.6,0.00,3.3,7.4,"23:57:44",1
